| time (UTC) | temp C | wind direction | speed KPH | gust KPH | rain 1hr cm | rain 24hr cm | rain mn cm | humidity % | barometer mb |
| 20260510083006 | 17 | 323 | 0.0 | 1.6 | 0.00 | 0.00 | 0.00 | 77 | 1021.0 |
| 20260510081502 | 15 | 91 | 0.0 | 1.6 | 0.00 | 0.00 | 0.00 | 85 | 1020.8 |
| 20260510080002 | 15 | 76 | 0.0 | 0.0 | 0.00 | 0.00 | 0.00 | 87 | 1020.9 |
| 20260510074601 | 15 | 76 | 0.0 | 0.0 | 0.00 | 0.00 | 0.00 | 88 | 1020.8 |
| 20260510073107 | 15 | 76 | 0.0 | 0.0 | 0.00 | 0.00 | 0.00 | 87 | 1020.9 |
| 20260510071557 | 15 | 76 | 0.0 | 0.0 | 0.00 | 0.00 | 0.00 | 86 | 1020.9 |
| 20260510070054 | 15 | 76 | 0.0 | 0.0 | 0.00 | 0.00 | 0.00 | 86 | 1021.2 |
| 20260510064554 | 15 | 76 | 0.0 | 0.0 | 0.00 | 0.00 | 0.00 | 85 | 1021.4 |
| 20260510063052 | 15 | 76 | 0.0 | 0.0 | 0.00 | 0.00 | 0.00 | 86 | 1021.8 |
| 20260510061547 | 15 | 76 | 0.0 | 0.0 | 0.00 | 0.00 | 0.00 | 86 | 1022.0 |
| 20260510060046 | 15 | 76 | 0.0 | 0.0 | 0.00 | 0.00 | 0.00 | 85 | 1021.9 |
| 20260510054543 | 15 | 76 | 0.0 | 0.0 | 0.00 | 0.00 | 0.00 | 86 | 1021.9 |
| 20260510053041 | 15 | 76 | 0.0 | 0.0 | 0.00 | 0.00 | 0.00 | 85 | 1021.7 |
| 20260510051539 | 15 | 111 | 0.0 | 0.0 | 0.00 | 0.00 | 0.00 | 85 | 1021.6 |
| 20260510050038 | 15 | 111 | 0.0 | 0.0 | 0.00 | 0.00 | 0.00 | 85 | 1021.4 |
| 20260510044538 | 15 | 111 | 0.0 | 0.0 | 0.00 | 0.00 | 0.00 | 84 | 1021.3 |
| 20260510043035 | 15 | 111 | 0.0 | 0.0 | 0.00 | 0.00 | 0.00 | 84 | 1021.2 |
| 20260510041536 | 15 | 111 | 0.0 | 0.0 | 0.00 | 0.00 | 0.00 | 82 | 1021.3 |
| 20260510040037 | 15 | 111 | 0.0 | 0.0 | 0.00 | 0.00 | 0.00 | 82 | 1021.4 |
| 20260510034533 | 15 | 111 | 0.0 | 0.0 | 0.00 | 0.00 | 0.00 | 80 | 1021.1 |
| 20260510033030 | 16 | 111 | 0.0 | 0.0 | 0.00 | 0.00 | 0.00 | 79 | 1020.7 |
| 20260510031529 | 16 | 111 | 0.0 | 0.0 | 0.00 | 0.00 | 0.00 | 77 | 1020.5 |
| 20260510030028 | 16 | 111 | 0.0 | 0.0 | 0.00 | 0.00 | 0.00 | 74 | 1020.4 |
| 20260510024528 | 17 | 111 | 0.0 | 0.0 | 0.00 | 0.00 | 0.00 | 72 | 1020.0 |
| 20260510023030 | 17 | 111 | 0.0 | 0.0 | 0.00 | 0.00 | 0.00 | 67 | 1019.7 |
| 20260510021530 | 18 | 111 | 0.0 | 0.0 | 0.00 | 0.00 | 0.00 | 63 | 1019.3 |
| 20260510020026 | 19 | 112 | 0.0 | 0.0 | 0.00 | 0.00 | 0.00 | 59 | 1019.0 |
| 20260510014525 | 20 | 111 | 0.0 | 0.0 | 0.00 | 0.00 | 0.00 | 55 | 1018.6 |
| 20260510013025 | 21 | 111 | 0.0 | 0.0 | 0.00 | 0.00 | 0.00 | 52 | 1018.3 |
| 20260510011524 | 23 | 111 | 0.0 | 0.0 | 0.00 | 0.00 | 0.00 | 49 | 1018.2 |
| 20260510010023 | 24 | 111 | 0.0 | 3.2 | 0.00 | 0.00 | 0.00 | 44 | 1017.9 |
| 20260510004524 | 25 | 101 | 0.0 | 3.2 | 0.00 | 0.08 | 0.00 | 42 | 1017.7 |
| 20260510003022 | 25 | 94 | 0.0 | 1.6 | 0.00 | 0.08 | 0.00 | 41 | 1017.7 |
| 20260510001521 | 26 | 167 | 0.0 | 4.8 | 0.00 | 0.08 | 0.00 | 39 | 1017.7 |
| 20260510000025 | 27 | 231 | 0.0 | 3.2 | 0.00 | 0.08 | 0.00 | 39 | 1017.7 |
| 20260509234534 | 28 | 219 | 0.0 | 4.8 | 0.00 | 0.08 | 0.00 | 39 | 1017.8 |
| 20260509233017 | 29 | 157 | 0.0 | 1.6 | 0.00 | 0.08 | 0.00 | 38 | 1017.8 |
| 20260509231517 | 29 | 262 | 0.0 | 3.2 | 0.00 | 0.08 | 0.00 | 38 | 1017.9 |
| 20260509230014 | 28 | 244 | 1.6 | 6.4 | 0.00 | 0.08 | 0.00 | 38 | 1017.9 |
| 20260509224527 | 28 | 226 | 0.0 | 1.6 | 0.00 | 0.08 | 0.00 | 38 | 1018.0 |
| 20260509223012 | 27 | 27 | 0.0 | 0.0 | 0.00 | 0.08 | 0.00 | 43 | 1018.1 |
| 20260509221512 | 26 | 27 | 0.0 | 3.2 | 0.00 | 0.08 | 0.00 | 42 | 1018.1 |
| 20260509220010 | 28 | 103 | 0.0 | 3.2 | 0.00 | 0.08 | 0.00 | 38 | 1018.0 |
| 20260509214508 | 28 | 48 | 0.0 | 4.8 | 0.00 | 0.08 | 0.00 | 36 | 1018.0 |
| 20260509213008 | 28 | 54 | 1.6 | 6.4 | 0.00 | 0.08 | 0.00 | 37 | 1018.1 |
| 20260509211508 | 27 | 139 | 0.0 | 8.0 | 0.00 | 0.08 | 0.00 | 40 | 1018.3 |
| 20260509210004 | 27 | 16 | 0.0 | 8.0 | 0.00 | 0.08 | 0.00 | 39 | 1018.7 |
| 20260509204504 | 27 | 35 | 0.0 | 4.8 | 0.00 | 0.08 | 0.00 | 40 | 1018.8 |
| 20260509203002 | 27 | 13 | 0.0 | 4.8 | 0.00 | 0.08 | 0.00 | 44 | 1019.0 |
| 20260509201501 | 28 | 58 | 0.0 | 6.4 | 0.00 | 0.08 | 0.00 | 39 | 1019.0 |
| 20260509200100 | 28 | 58 | 3.2 | 8.0 | 0.00 | 0.08 | 0.00 | 37 | 1019.0 |
| 20260509194558 | 27 | 330 | 0.0 | 8.0 | 0.00 | 0.08 | 0.00 | 42 | 1019.0 |
| 20260509193057 | 27 | 71 | 1.6 | 6.4 | 0.00 | 0.08 | 0.00 | 42 | 1019.1 |
| 20260509191557 | 27 | 54 | 0.0 | 6.4 | 0.00 | 0.08 | 0.00 | 44 | 1019.3 |
| 20260509190056 | 28 | 15 | 0.0 | 4.8 | 0.00 | 0.08 | 0.00 | 43 | 1019.4 |
| 20260509184552 | 27 | 221 | 0.0 | 6.4 | 0.00 | 0.08 | 0.00 | 44 | 1019.4 |
| 20260509183052 | 26 | 231 | 0.0 | 6.4 | 0.00 | 0.08 | 0.00 | 45 | 1019.4 |
| 20260509181606 | 27 | 118 | 0.0 | 4.8 | 0.00 | 0.08 | 0.00 | 43 | 1019.6 |
| 20260509180110 | 26 | 141 | 3.2 | 6.4 | 0.00 | 0.08 | 0.00 | 44 | 1019.6 |
| 20260509174546 | 26 | 50 | 3.2 | 6.4 | 0.00 | 0.08 | 0.00 | 42 | 1019.8 |
| 20260509173056 | 26 | 137 | 0.0 | 4.8 | 0.00 | 0.08 | 0.00 | 46 | 1019.9 |
| 20260509171551 | 26 | 268 | 0.0 | 4.8 | 0.00 | 0.08 | 0.00 | 48 | 1020.1 |
| 20260509170050 | 26 | 137 | 0.0 | 3.2 | 0.00 | 0.08 | 0.00 | 50 | 1020.0 |
| 20260509164538 | 26 | 113 | 0.0 | 6.4 | 0.00 | 0.08 | 0.00 | 55 | 1019.9 |
| 20260509163037 | 25 | 202 | 0.0 | 6.4 | 0.00 | 0.08 | 0.00 | 56 | 1020.1 |
| 20260509161541 | 25 | 246 | 0.0 | 6.4 | 0.00 | 0.08 | 0.00 | 61 | 1020.2 |
| 20260509144529 | 21 | 210 | 0.0 | 3.2 | 0.00 | 0.08 | 0.00 | 74 | 1020.3 |
| 20260509143025 | 20 | 151 | 0.0 | 3.2 | 0.00 | 0.08 | 0.00 | 76 | 1020.1 |
| 20260509141537 | 20 | 266 | 0.0 | 3.2 | 0.00 | 0.08 | 0.00 | 78 | 1020.3 |
| 20260509140022 | 20 | 220 | 0.0 | 1.6 | 0.00 | 0.08 | 0.00 | 79 | 1020.1 |
| 20260509134527 | 17 | 34 | 0.0 | 1.6 | 0.00 | 0.08 | 0.00 | 82 | 1019.8 |
| 20260509133013 | 16 | 244 | 0.0 | 0.0 | 0.00 | 0.08 | 0.00 | 84 | 1019.9 |
| 20260509131509 | 14 | 244 | 0.0 | 1.6 | 0.00 | 0.08 | 0.00 | 92 | 1019.7 |
| 20260509130008 | 12 | 244 | 0.0 | 0.0 | 0.00 | 0.08 | 0.00 | 96 | 1019.7 |
| 20260509124506 | 11 | 244 | 0.0 | 0.0 | 0.00 | 0.08 | 0.00 | 96 | 1019.7 |
| 20260509123012 | 10 | 244 | 0.0 | 0.0 | 0.00 | 0.08 | 0.00 | 96 | 1019.7 |
| 20260509121504 | 10 | 244 | 0.0 | 0.0 | 0.00 | 0.08 | 0.00 | 96 | 1019.4 |
| 20260509120011 | 9 | 244 | 0.0 | 0.0 | 0.00 | 0.08 | 0.00 | 95 | 1019.3 |
| 20260509114503 | 8 | 244 | 0.0 | 0.0 | 0.00 | 0.08 | 0.00 | 95 | 1019.2 |
| 20260509113002 | 9 | 244 | 0.0 | 0.0 | 0.00 | 0.08 | 0.00 | 95 | 1019.1 |
| 20260509111613 | 9 | 244 | 0.0 | 0.0 | 0.00 | 0.08 | 0.00 | 94 | 1018.9 |
| 20260509110059 | 9 | 244 | 0.0 | 0.0 | 0.00 | 0.08 | 0.00 | 94 | 1018.7 |
| 20260509104610 | 9 | 244 | 0.0 | 0.0 | 0.00 | 0.08 | 0.00 | 94 | 1018.6 |
| 20260509103110 | 10 | 244 | 0.0 | 0.0 | 0.00 | 0.08 | 0.00 | 94 | 1018.5 |
| 20260509101556 | 10 | 244 | 0.0 | 0.0 | 0.00 | 0.08 | 0.00 | 94 | 1018.4 |
| 20260509100051 | 10 | 244 | 0.0 | 0.0 | 0.00 | 0.08 | 0.00 | 93 | 1018.4 |
| 20260509094549 | 10 | 244 | 0.0 | 0.0 | 0.00 | 0.08 | 0.00 | 93 | 1018.6 |
| 20260509093047 | 10 | 244 | 0.0 | 0.0 | 0.00 | 0.08 | 0.00 | 93 | 1018.7 |
| 20260509091546 | 11 | 244 | 0.0 | 0.0 | 0.00 | 0.08 | 0.00 | 92 | 1018.8 |
| 20260509090052 | 11 | 244 | 0.0 | 0.0 | 0.00 | 0.08 | 0.00 | 91 | 1018.8 |
| 20260509084540 | 11 | 244 | 0.0 | 0.0 | 0.00 | 0.08 | 0.00 | 91 | 1018.9 |